Home   Weather   Tucumán   Past weeks

Flag for Argentina Past Weather in Tucumán, Tucumán, Argentina — Yesterday and Last 2 Weeks

Now
77 °F

Passing clouds.


Feels Like: 79 °F
Forecast: 70 / 93 °F
Wind: 7 mph from North

Location: Tucuman Aerodrome

Current Time: Jan 19, 2017 at 4:02:19 am

Latest Report: Jan 19, 2017 at 3:00 am


Visibility: N/A

Pressure: 29.92 "Hg

Humidity: 57%

Dew Point: 61 °F

Location of TucumánLocation

Past Weather in Tucumán — Graph

°F

Tucumán Temperature Yesterday

Maximum temperature yesterday: 95 °F (at 5:00 pm)
Minimum temperature yesterday: 68 °F (at 7:00 am)
Average temperature yesterday: 82 °F

High & Low Weather Summary for the Past Weeks

 TemperatureHumidityPressure
High97 °F (Jan 12, 4:00 pm)100% (Jan 5, 2:00 am)30.36 "Hg (Jan 5, 2:00 am)
Low68 °F (Jan 16, 7:00 am)36% (Jan 18, 5:00 pm)29.53 "Hg (Jan 4, 3:00 am)
Average80 °F77%29.80 "Hg
* Reported Jan 4 2:00 am — Jan 19 2:00 am, Tucumán, Weather by CustomWeather, © 2017

Note: Actual official high and low records may vary slightly from our data, if they occured in-between our weather recording intervals... More about our weather records

Advertising

Tucumán Weather History for the Previous 24 Hours

Scroll right to see more
 ConditionsComfort  
Time TempWeatherWind HumidityBarometerVisibility
2:00 am
Thu, Jan 19
79 °FPassing clouds.7 mph54%29.92 "HgN/A
1:00 am79 °FPassing clouds.7 mph54%29.92 "HgN/A
12:00 am79 °FPassing clouds.3 mph58%29.92 "HgN/A
11:00 pm
Wed, Jan 18
82 °FPassing clouds.No wind51%29.92 "HgN/A
10:00 pm86 °FPassing clouds.5 mph46%29.89 "HgN/A
8:00 pm91 °FPassing clouds.2 mph49%29.83 "HgN/A
7:00 pm93 °FPassing clouds.7 mph41%29.83 "HgN/A
6:00 pm93 °FPassing clouds.9 mph39%29.83 "HgN/A
5:00 pm95 °FPassing clouds.9 mph36%29.83 "HgN/A
4:00 pm93 °FPassing clouds.12 mph39%29.86 "HgN/A
3:00 pm93 °FPassing clouds.6 mph41%29.89 "HgN/A
2:00 pm91 °FPassing clouds.10 mph46%30.36 "HgN/A
1:00 pm88 °FPassing clouds.5 mph55%29.92 "HgN/A
12:00 pm88 °FSunny.6 mph52%29.92 "Hg10 mi
11:00 am86 °FSunny.2 mph55%29.92 "Hg10 mi
10:00 am82 °FSunny.7 mph55%29.92 "Hg10 mi
9:00 am77 °FSunny.5 mph65%29.92 "Hg10 mi
8:00 am72 °FSunny.5 mph73%29.92 "Hg10 mi
7:00 am68 °FSunny.7 mph73%29.89 "Hg10 mi
6:00 am70 °FClear.2 mph73%29.86 "Hg10 mi
5:00 am72 °FClear.7 mph69%29.83 "Hg10 mi
4:00 am73 °FClear.7 mph65%29.83 "Hg10 mi
Weather by CustomWeather, © 2017

See weather overviewHow to use our weather pages